Location: Peebles
(55.6412°N, 3.1714°W)
Time: 11:16:22
(UTC+01:00)

KEPLER-1 (CASE) - Pass Details

Date: 28 June 2022
Orbit: 435 x 454 km, 97.4° (Epoch: 16 August)

Event Time Altitude Azimuth Distance (km) Brightness Sun altitude
Exits shadow 23:04:41 - 145° (SE) 1,686 ? -6.3°
Reaches altitude 10° 23:05:00 10° 144° (SE) 1,556 ? -6.3°
Maximum altitude 23:08:13 47° 70° (ENE) 600 ? -6.6°
Drops below altitude 10° 23:11:29 10° 355° (N) 1,582 ? -6.8°
Sets 23:13:37 0° 350° (N) 2,488 ? -6.9°
